Flag for France Weather past 2 weeks in Paris, France

59 °F

Partly cloudy.

Feels Like: N/A
Forecast: 50 / 60 °F
Wind: N/A

Location: Villacoublay

Current Time: Oct 6, 2015 at 10:21:37 PM

Latest Report: Oct 6, 2015 at 10:00 PM

Visibility: N/A

Pressure: 29.65 "Hg

Humidity: 94%

Dew point: 57 °F

Location of ParisLocation

Historic Weather in Paris — Graph


Paris temperature yesterday

Maximum temperature yesterday: 61 °F (at 11:30 AM)
Minimum temperature yesterday: 54 °F (at 12:00 AM)
Average temperature yesterday: 57 °F

Past Weeks' High & Low Weather Summary

High70 °F (Oct 3, 4:30 PM)100% (Sep 22, 8:00 AM)30.51 "Hg (Sep 22, 8:00 AM)
Low46 °F (Oct 1, 8:00 AM)39% (Oct 1, 5:30 PM)29.56 "Hg (Oct 6, 7:00 AM)
Average56 °F74%30.09 "Hg
* Reported Sep 21 9:00 PM — Oct 6 9:00 PM, Paris, Weather by CustomWeather, © 2015

Note: Actual official high and low records may vary slightly from our data, if they occured in-between our weather recording intervals... More about our weather records


Paris weather history for previous 24 hours

Time TempWeatherWind HumidityBarometerVisibility
9:00 PM
Tue, Oct 6
61 °FPartly cloudy.N/A88%29.65 "HgN/A
8:30 PM61 °FPassing clouds.13 mph88%29.62 "HgN/A
8:00 PM61 °FBroken clouds.13 mph88%29.62 "HgN/A
7:30 PM61 °FBroken clouds.N/A88%29.59 "HgN/A
7:00 PM63 °FBroken clouds.13 mph83%29.59 "HgN/A
6:30 PM63 °FPartly sunny.12 mph88%29.59 "HgN/A
6:00 PM64 °FPartly sunny.13 mph83%29.56 "HgN/A
5:30 PM63 °FBroken clouds.10 mph88%29.56 "HgN/A
5:00 PM63 °FRain. Broken clouds.8 mph88%29.56 "HgN/A
4:30 PM64 °FPartly sunny.13 mph78%29.56 "HgN/A
4:00 PM66 °FPartly sunny.13 mph73%29.56 "HgN/A
3:30 PM66 °FPassing clouds.N/A73%29.56 "HgN/A
3:00 PM66 °FBroken clouds.10 mph78%29.56 "HgN/A
2:30 PM64 °FPassing clouds.7 mph83%29.59 "HgN/A
2:00 PM61 °FBroken clouds.8 mph94%29.59 "HgN/A
1:30 PM61 °FRain. Broken clouds.5 mph94%29.59 "HgN/A
1:00 PM61 °FLight rain. Broken clouds.10 mph94%29.59 "Hg4 mi
12:30 PM63 °FPartly sunny.10 mph88%29.59 "HgN/A
12:00 PM63 °FPartly sunny.N/A88%29.59 "HgN/A
11:30 AM63 °FPartly sunny.5 mph94%29.59 "HgN/A
11:00 AM61 °FSunny.2 mph94%29.59 "Hg10 mi
10:30 AM61 °FSunny.3 mph94%29.59 "Hg10 mi
10:00 AM61 °FCool.5 mph100%29.59 "HgN/A
9:30 AM61 °FBroken clouds.1 mph94%29.56 "HgN/A
9:00 AM59 °FBroken clouds.3 mph100%29.56 "HgN/A
8:30 AM61 °FRain. Passing clouds.10 mph94%29.56 "Hg6 mi
8:00 AM61 °FLight rain. Partly cloudy.N/A100%29.56 "HgN/A
7:30 AM61 °FLight rain. Low clouds.10 mph100%29.56 "Hg4 mi
7:00 AM61 °FRain. Fog.12 mph100%29.56 "Hg3 mi
6:30 AM61 °FDense fog.8 mph100%29.59 "Hg1 mi
6:00 AM61 °FFog.7 mph100%29.59 "Hg1 mi
5:30 AM61 °FFog.7 mph100%29.62 "Hg1 mi
5:00 AM61 °FFog.7 mph100%29.62 "Hg3 mi
4:30 AM61 °FFog.5 mph100%29.62 "Hg2 mi
4:00 AM61 °FFog.N/A100%29.65 "Hg1 mi
3:30 AM61 °FFog.5 mph100%29.65 "Hg1 mi
3:00 AM61 °FFog.5 mph94%29.65 "Hg1 mi
2:30 AM61 °FDense fog.5 mph94%29.65 "Hg1 mi
2:00 AM59 °FFog.6 mph100%29.68 "Hg1 mi
1:30 AM59 °FFog.6 mph100%29.68 "Hg1 mi
1:00 AM59 °FLow clouds.5 mph100%29.68 "Hg4 mi
12:30 AM59 °FLow clouds.3 mph100%29.68 "Hg5 mi
12:00 AM59 °FLow clouds.6 mph100%29.68 "Hg6 mi
11:00 PM
Mon, Oct 5
59 °FLow clouds.7 mph94%29.68 "HgN/A
10:30 PM59 °FLow clouds.6 mph100%29.68 "HgN/A
10:00 PM59 °FLow clouds.10 mph100%29.71 "HgN/A
Weather by CustomWeather, © 2015

See weather overviewHow to use our weather pages